Regional Weather Roundup
Issued by NWS

Home | Current Version | Previous Version | Text Only | Print | Product List | Glossary Off
Versions: 1 2 3 4 5 6 7 8 9 10 11 12 13 14 15 16 17 18 19 20 21 22 23 24 25 26 27 28 29 30 31 32 33 34 35 36 37 38 39 40 41 42 43 44 45 46 47 48 49 50

000
ASUS43 KMKX 210511
RWRWI

WISCONSIN REGIONAL WEATHER ROUNDUP
NATIONAL WEATHER SERVICE MILWAUKEE/SULLIVAN WI
1200 AM CDT THU AUG 21 2014

NOTE: "FAIR" INDICATES FEW OR NO CLOUDS BELOW 12,000 FEET WITH NO
SIGNIFICANT WEATHER AND/OR OBSTRUCTIONS TO VISIBILITY.

WIZ001-002-006>008-014>016-023>028-210600-
NORTHWEST WISCONSIN

CITY           SKY/WX    TMP DP  RH WIND       PRES   REMARKS
SUPERIOR ARPT  CLOUDY    62  61  98 NE3       29.94S
ASHLAND        CLOUDY    60  58  92 CALM      29.96S
HAYWARD        CLEAR     57  56  96 CALM      29.95F FOG
SIREN          PTCLDY    65  62  90 SE5       29.92F
RICE LAKE      PTCLDY    64  61  89 E6        29.94F
LADYSMITH      PTCLDY    62  60  94 E5        29.97S
EAU CLAIRE     MOCLDY    66  63  90 NE3       29.91S
MENOMONIE      MOCLDY    67  64  88 CALM      29.91S
NEW RICHMOND   PTCLDY    67  63  85 E8        29.90F
OSCEOLA        PTCLDY    68  64  89 E6        29.92F
$$

WIZ003>005-009-010-017-018-210600-
NORTH CENTRAL WISCONSIN

CITY           SKY/WX    TMP DP  RH WIND       PRES   REMARKS
WOODRUFF       CLOUDY    63  59  87 CALM      29.98S
RHINELANDER    CLOUDY    61  60  97 CALM      29.99S
EAGLE RIVER    CLOUDY    62  61  97 CALM      29.98S
LAND O LAKES   CLOUDY    61  60  97 CALM      29.99S
PHILLIPS       PTCLDY    56  56 100 CALM      29.97S
TOMAHAWK       MOCLDY    55  54  97 CALM      29.98S
MEDFORD        MOCLDY    59  59  99 E6        29.96S
MERRILL        PTCLDY    59  59 100 CALM      29.97S FOG
$$

WIZ029-030-035-036-043>047-210600-
CENTRAL WISCONSIN

CITY           SKY/WX    TMP DP  RH WIND       PRES   REMARKS
WAUSAU         PTCLDY    62  60  93 CALM      29.95S
MOSINEE        PTCLDY    61  61 100 CALM      29.97S
MARSHFIELD     PTCLDY    64  61  90 E3        29.95S
STEVENS POINT  PTCLDY    58  57  97 NE3       29.96S
WAUPACA        PTCLDY    64  63  95 CALM      29.96R
WAUTOMA        PTCLDY    63  62  96 CALM      29.96R
WISC RAPIDS    PTCLDY    64  62  93 SE3       29.96S
CAMP DOUGLAS   CLEAR     63  63 100 E3        29.94S
$$

WIZ011>013-019>022-031-037>040-048>050-210600-
NORTHEAST WISCONSIN

CITY           SKY/WX    TMP DP  RH WIND       PRES   REMARKS
ANTIGO         CLOUDY    59  59  99 CALM      29.98S
STURGEON BAY   CLOUDY    64  61  88 S7        29.97R
GREEN BAY      PTCLDY    62  61  96 CALM      29.96R
MANITOWOC      MOCLDY    63  63 100 CALM      29.97R FOG
APPLETON       MOCLDY    64  61  88 CALM      29.96S
CLINTONVILLE   PTCLDY    61  59  94 CALM      29.95S
OSHKOSH        PTCLDY    64  63  96 S5        29.96R
$$

WIZ032>034-041-042-053>061-210600-
SOUTHWEST WISCONSIN

CITY           SKY/WX    TMP DP  RH WIND       PRES   REMARKS
LA CROSSE      PTCLDY    73  67  81 E8        29.90R
SPARTA         PTCLDY    69  63  81 CALM      29.93S
VIROQUA        FAIR      68  68 100 E5        29.94S
BOSCOBEL       PTCLDY    68  66  93 CALM      29.92S
PRAIRIE DU CHI MOCLDY    69  66  91 E5        29.90S
PLATTEVILLE    FAIR      67  66  94 SE5       29.95R
$$

WIZ056-057-062-063-064-067-068-210600-
SOUTH CENTRAL WISCONSIN

CITY           SKY/WX    TMP DP  RH WIND       PRES   REMARKS
BARABOO/DELLS  MOCLDY    68  64  85 CALM      29.95R
LONE ROCK      PTCLDY    73  67  81 CALM      29.93S
WATERTOWN      CLEAR     66  65  96 E6        29.95R
MADISON        MOCLDY    71  67  87 NE3       29.94R
MIDDLETON      FAIR      71  70  96 CALM      29.94S
MONROE         PTCLDY    68  64  88 S5        29.95S
JANESVILLE     MOCLDY    72  68  88 CALM      29.94S
$$

WIZ051-052-058>065-066-070>072-210600-
SOUTHEAST WISCONSIN

CITY           SKY/WX    TMP DP  RH WIND       PRES   REMARKS
MILWAUKEE      MOCLDY    68  64  87 E5        29.96R
WAUKESHA       MOCLDY    64  63  94 E5        29.98S
MILWAUKEE/TIMM CLOUDY    68  61  77 E3        29.98R
RACINE         PTCLDY    69  64  84 E6        29.98R
BURLINGTON     PTCLDY    66  65  97 CALM      29.97R FOG
KENOSHA        PTCLDY    69  64  84 E6        29.96R
FOND DU LAC    PTCLDY    65  62  90 S6        29.97R
SHEBOYGAN      MOCLDY    62  60  93 CALM      29.97R FOG
WEST BEND      MOCLDY    63  59  88 CALM      29.97S
JUNEAU         MOCLDY    66  39  37 E5        29.97R
$$

LSZ147-162-210600-
LAKE SUPERIOR

STATION/POSITION TIME  TEMP    WIND        PRES    WAVE
                       AIR SEA DIR/SP/G            HT/PER
                 (UTC) (F)     (DEG/KT/KT) (MB)    (FT/S)
W MID LAKE BUOY  0450   59 59   70/  4/  4 1014.5F   0
DEVILS ISLAND    0500   61      90/  7/  8 1014.5R
PORT WING        0440   63      CALM  /  1 1014.2R
SAXON HARBOR     0440   60        CALM     1014.2R
$$

LMZ867-665-643>646-210600-
LAKE MICHIGAN

STATION/POSITION TIME  TEMP    WIND        PRES    WAVE
                       AIR SEA DIR/SP/G            HT/PER
                 (UTC) (F)     (DEG/KT/KT) (MB)    (FT/S)
N MID LAKE BUOY  0450   62 62  240/  4/  6 1013.8R   0
NORTHPORT PIER   0400   63     210/  3/  5 1014.2R
SISTER BAY       0426   64     150/  1/  4   N/A
ALGOMA LAKESHORE 0353             CALM       N/A
KEWAUNEE LAKESHO 0400   64      CALM  /  1 1013.2R
SHEBOYGAN LAKESH 0500   66 65  120/  3/  3 1015.0R
ATWATER BUOY     0400   69      80/  8/ 10 1015.2R
MILWAUKEE LAKESH 0400   69      70/  3/  4   N/A
S MID LAKE BUOY  0450   68 68   70/  8/  8 1014.4R   0
KENOSHA   LAKESH 0500   70      70/  3/  5 1014.2R
$$

TC  - TEMPERATURE IN CELSIUS
VSB - VISIBILITY IN STATUTE MILES
WCI - WIND CHILL INDEX
HX  - HEAT INDEX




USA.gov is the U.S. government's official web portal to all federal, state and local government web resources and services.